Location: Fernhill
(41.0167°S, 175.6333°E)
Time: 15:28:51
(UTC+00:00)

Meteor 2-6 Rocket - Pass Details

Date: 24 February 2026
Orbit: 804 x 913 km, 81.3° (Epoch: 7 March)

Event Time Altitude Azimuth Distance (km) Brightness Sun altitude
Exits shadow 08:19:47 18° 76° (ENE) 2,047 5.6 -13.5°
Maximum altitude 08:21:13 20° 95° (E) 1,971 5.6 -13.8°
Drops below altitude 10° 08:25:21 10° 139° (SE) 2,613 6.6 -14.5°
Sets 08:28:30 0° 155° (SSE) 3,574 7.5 -15.0°
